• In Belarus
  • List of Countries
  • For 7 days
  • Water Temperature
  • Satellite Maps
  • Weather Map
  • Weather Widgets
  • user-avatar
    Login

    Hourly Weather Bubanza

    Today, 11 December, Monday

    Time Temperature Precipitation Wind Pressure Humidity
    00:00 +20°C° 0.9 mm 0 mps 672 mmHg 91%
    01:00 +20°C° 0.9 mm 0 mps 672 mmHg 91%
    02:00 +20°C° 0 mm 0 mps 672 mmHg 91%
    03:00 +20°C° 0.4 mm 0 mps 672 mmHg 91%
    04:00 +20°C° 0.4 mm 0 mps 672 mmHg 91%
    05:00 +19°C° 0.4 mm 0 mps 672 mmHg 91%
    06:00 +20°C° 0.2 mm 0 mps 672 mmHg 88%
    07:00 +21°C° 0.2 mm 0 mps 673 mmHg 85%
    08:00 +22°C° 0 mm 0 mps 673 mmHg 81%
    09:00 +25°C° 0.1 mm 1 mps 673 mmHg 74%
    10:00 +27°C° 0.1 mm 1 mps 673 mmHg 67%
    11:00 +28°C° 0.1 mm 1 mps 673 mmHg 60%
    12:00 +29°C° 0.1 mm 1 mps 673 mmHg 58%
    13:00 +30°C° 0.1 mm 1 mps 673 mmHg 56%
    14:00 +30°C° 0.1 mm 2 mps 672 mmHg 54%
    15:00 +29°C° 0.1 mm 2 mps 672 mmHg 56%
    16:00 +29°C° 0.1 mm 1 mps 671 mmHg 59%
    17:00 +28°C° 0.1 mm 1 mps 671 mmHg 62%
    18:00 +26°C° 0.1 mm 1 mps 671 mmHg 68%
    19:00 +25°C° 0.1 mm 1 mps 672 mmHg 74%
    20:00 +23°C° 0.1 mm 1 mps 672 mmHg 80%
    21:00 +21°C° 0 mm 0 mps 672 mmHg 82%
    22:00 +20°C° 0 mm 0 mps 672 mmHg 84%
    23:00 +20°C° 0 mm 0 mps 673 mmHg 86%

    Tomorrow, 12 December, Tuesday

    Time Temperature Precipitation Wind Pressure Humidity
    00:00 +20°C° 0 mm 0 mps 672 mmHg 86%
    01:00 +20°C° 0 mm 0 mps 672 mmHg 86%
    02:00 +19°C° 0 mm 0 mps 672 mmHg 86%
    03:00 +21°C° 0 mm 1 mps 672 mmHg 87%
    04:00 +21°C° 0 mm 1 mps 672 mmHg 87%
    05:00 +21°C° 0 mm 1 mps 672 mmHg 88%
    06:00 +23°C° 0 mm 1 mps 672 mmHg 81%
    07:00 +25°C° 0 mm 1 mps 673 mmHg 74%
    08:00 +27°C° 0 mm 1 mps 673 mmHg 66%
    09:00 +29°C° 0 mm 1 mps 674 mmHg 58%
    10:00 +30°C° 0 mm 2 mps 674 mmHg 50%
    11:00 +32°C° 0 mm 2 mps 674 mmHg 42%
    12:00 +34°C° 0.1 mm 2 mps 673 mmHg 43%
    13:00 +34°C° 0.1 mm 2 mps 673 mmHg 43%
    14:00 +34°C° 0.1 mm 2 mps 672 mmHg 44%
    15:00 +32°C° 0.2 mm 2 mps 672 mmHg 49%
    16:00 +31°C° 0.2 mm 1 mps 671 mmHg 54%
    17:00 +30°C° 0.2 mm 1 mps 671 mmHg 59%
    18:00 +28°C° 0.8 mm 1 mps 671 mmHg 66%
    19:00 +26°C° 0.8 mm 1 mps 671 mmHg 74%
    20:00 +24°C° 0.8 mm 1 mps 672 mmHg 82%
    21:00 +23°C° 0.5 mm 1 mps 672 mmHg 83%
    22:00 +23°C° 0.5 mm 1 mps 672 mmHg 84%
    23:00 +20°C° 0.5 mm 0 mps 673 mmHg 86%

    Day after tomorrow, 13 December, Wednesday

    Time Temperature Precipitation Wind Pressure Humidity
    00:00 +20°C° 0 mm 0 mps 672 mmHg 86%
    01:00 +20°C° 0 mm 0 mps 672 mmHg 86%
    02:00 +20°C° 0 mm 0 mps 672 mmHg 86%
    03:00 +20°C° 0 mm 0 mps 672 mmHg 86%
    04:00 +21°C° 0 mm 1 mps 672 mmHg 87%
    05:00 +21°C° 0 mm 1 mps 672 mmHg 87%
    06:00 +23°C° 0 mm 1 mps 672 mmHg 81%
    07:00 +25°C° 0 mm 1 mps 673 mmHg 74%
    08:00 +27°C° 0 mm 1 mps 674 mmHg 67%
    09:00 +29°C° 0 mm 1 mps 674 mmHg 58%
    10:00 +31°C° 0 mm 1 mps 674 mmHg 48%
    11:00 +34°C° 0 mm 2 mps 674 mmHg 38%
    12:00 +34°C° 0 mm 2 mps 673 mmHg 38%
    13:00 +35°C° 0 mm 2 mps 672 mmHg 37%
    14:00 +35°C° 0 mm 2 mps 672 mmHg 37%
    15:00 +33°C° 0 mm 1 mps 671 mmHg 41%
    16:00 +32°C° 0 mm 1 mps 671 mmHg 45%
    17:00 +30°C° 0 mm 1 mps 670 mmHg 49%
    18:00 +28°C° 0 mm 1 mps 670 mmHg 56%
    19:00 +26°C° 0 mm 1 mps 671 mmHg 63%
    20:00 +23°C° 0 mm 1 mps 671 mmHg 70%
    21:00 +23°C° 0 mm 1 mps 672 mmHg 73%
    22:00 +22°C° 0 mm 1 mps 672 mmHg 75%
    23:00 +22°C° 0 mm 1 mps 673 mmHg 78%

    14 December, Thursday

    Time Temperature Precipitation Wind Pressure Humidity
    00:00 +22°C° 0 mm 1 mps 672 mmHg 78%
    01:00 +21°C° 0 mm 1 mps 672 mmHg 79%
    02:00 +21°C° 0 mm 1 mps 671 mmHg 79%
    03:00 +21°C° 0 mm 1 mps 672 mmHg 80%
    04:00 +20°C° 0 mm 1 mps 672 mmHg 80%
    05:00 +20°C° 0 mm 1 mps 672 mmHg 81%
    06:00 +22°C° 0 mm 1 mps 672 mmHg 73%
    07:00 +25°C° 0 mm 1 mps 673 mmHg 64%
    08:00 +27°C° 0 mm 1 mps 674 mmHg 56%
    09:00 +29°C° 0 mm 1 mps 674 mmHg 48%
    10:00 +31°C° 0 mm 1 mps 674 mmHg 39%
    11:00 +34°C° 0 mm 1 mps 674 mmHg 31%
    12:00 +34°C° 0 mm 1 mps 673 mmHg 31%
    13:00 +34°C° 0 mm 1 mps 672 mmHg 31%
    14:00 +35°C° 0 mm 2 mps 672 mmHg 32%
    15:00 +33°C° 0 mm 1 mps 671 mmHg 36%
    16:00 +32°C° 0 mm 1 mps 671 mmHg 40%
    17:00 +30°C° 0 mm 1 mps 671 mmHg 44%
    18:00 +28°C° 0 mm 1 mps 671 mmHg 50%
    19:00 +26°C° 0 mm 1 mps 671 mmHg 55%
    20:00 +21°C° 0 mm 0 mps 671 mmHg 61%
    21:00 +21°C° 0 mm 0 mps 672 mmHg 62%
    22:00 +20°C° 0 mm 0 mps 672 mmHg 63%
    23:00 +20°C° 0 mm 0 mps 672 mmHg 64%

    15 December, Friday

    Time Temperature Precipitation Wind Pressure Humidity
    00:00 +19°C° 0 mm 0 mps 672 mmHg 64%
    01:00 +21°C° 0 mm 1 mps 671 mmHg 63%
    02:00 +21°C° 0 mm 1 mps 671 mmHg 63%
    03:00 +21°C° 0 mm 1 mps 671 mmHg 63%
    04:00 +21°C° 0 mm 1 mps 671 mmHg 64%
    05:00 +21°C° 0 mm 1 mps 672 mmHg 64%
    06:00 +23°C° 0 mm 1 mps 672 mmHg 60%
    07:00 +25°C° 0 mm 1 mps 673 mmHg 56%
    08:00 +27°C° 0 mm 1 mps 674 mmHg 52%
    09:00 +29°C° 0 mm 1 mps 674 mmHg 47%
    10:00 +31°C° 0 mm 1 mps 674 mmHg 41%
    11:00 +34°C° 0 mm 2 mps 674 mmHg 36%
    12:00 +34°C° 0 mm 2 mps 673 mmHg 36%
    13:00 +34°C° 0 mm 2 mps 672 mmHg 36%
    14:00 +34°C° 0 mm 2 mps 672 mmHg 36%
    15:00 +31°C° 0.1 mm 2 mps 671 mmHg 41%
    16:00 +30°C° 0.1 mm 1 mps 671 mmHg 46%
    17:00 +28°C° 0.1 mm 1 mps 671 mmHg 51%
    18:00 +26°C° 0.1 mm 1 mps 671 mmHg 57%
    19:00 +25°C° 0.1 mm 1 mps 671 mmHg 62%
    20:00 +21°C° 0.1 mm 0 mps 672 mmHg 68%
    21:00 +20°C° 0 mm 0 mps 672 mmHg 69%
    22:00 +20°C° 0 mm 0 mps 672 mmHg 70%
    23:00 +19°C° 0 mm 0 mps 672 mmHg 71%

    16 December, Saturday

    Time Temperature Precipitation Wind Pressure Humidity
    00:00 +19°C° 0 mm 0 mps 672 mmHg 71%
    01:00 +21°C° 0 mm 1 mps 671 mmHg 71%
    02:00 +20°C° 0 mm 1 mps 671 mmHg 71%
    03:00 +20°C° 0 mm 1 mps 671 mmHg 71%
    04:00 +20°C° 0 mm 1 mps 671 mmHg 72%
    05:00 +20°C° 0 mm 1 mps 672 mmHg 72%
    06:00 +22°C° 0 mm 1 mps 672 mmHg 67%
    07:00 +24°C° 0 mm 1 mps 673 mmHg 61%
    08:00 +24°C° 0 mm 0 mps 674 mmHg 55%
    09:00 +29°C° 0 mm 1 mps 674 mmHg 49%
    10:00 +31°C° 0 mm 1 mps 674 mmHg 42%
    11:00 +33°C° 0 mm 1 mps 674 mmHg 36%
    12:00 +33°C° 0 mm 1 mps 673 mmHg 38%
    13:00 +32°C° 0 mm 1 mps 672 mmHg 40%
    14:00 +32°C° 0 mm 2 mps 671 mmHg 41%
    15:00 +31°C° 0.1 mm 1 mps 671 mmHg 46%
    16:00 +29°C° 0.1 mm 1 mps 671 mmHg 51%
    17:00 +28°C° 0.1 mm 1 mps 671 mmHg 56%
    18:00 +27°C° 0.1 mm 1 mps 671 mmHg 62%
    19:00 +25°C° 0.1 mm 1 mps 672 mmHg 67%
    20:00 +21°C° 0.1 mm 0 mps 672 mmHg 73%
    21:00 +21°C° 0.1 mm 0 mps 672 mmHg 74%
    22:00 +21°C° 0.1 mm 0 mps 672 mmHg 75%
    23:00 +20°C° 0.1 mm 0 mps 672 mmHg 77%
    Show more